RYR7477 GCTS-LIRP

Flight info

Callsign RYR7477
Flight time N/A
Altitude 34000
Route KORAL DCT SONSO DCT NIRAL UN871 OSDAM UM985 BARPA M985 PIMOS M445 SOPET M985 BCN N870 DIBER DCT TORTU DCT KONER
Aircraft B738/M-SDE2E3FGHIRWXY/LB1

Departure

Time 2026-04-27 08:14
Airport Tenerife Sur Airport (GCTS)

Arrival

Time N/A
Airport Pisa International Airport (LIRP)
Time Latitude Longitude Altitude Speed Heading
2026-04-27 07:52 28.04729 -16.57628 220 ft 0 kts 338°
2026-04-27 08:04 28.04719 -16.57623 221 ft 2 kts 338°
2026-04-27 08:04 28.04705 -16.57617 221 ft 2 kts 338°
2026-04-27 08:05 28.04691 -16.57611 221 ft 2 kts 338°
2026-04-27 08:05 28.04677 -16.57605 221 ft 1 kts 338°
2026-04-27 08:05 28.04668 -16.57600 221 ft 2 kts 327°
2026-04-27 08:05 28.04658 -16.57588 221 ft 2 kts 291°
2026-04-27 08:06 28.04656 -16.57571 221 ft 2 kts 258°
2026-04-27 08:06 28.04658 -16.57564 221 ft 1 kts 243°
2026-04-27 08:06 28.04660 -16.57560 221 ft 0 kts 248°
2026-04-27 08:08 28.04657 -16.57568 220 ft 3 kts 248°
2026-04-27 08:08 28.04647 -16.57595 220 ft 4 kts 249°
2026-04-27 08:08 28.04629 -16.57650 220 ft 11 kts 249°
2026-04-27 08:09 28.04582 -16.57707 220 ft 7 kts 155°
2026-04-27 08:09 28.04532 -16.57682 220 ft 8 kts 158°
2026-04-27 08:09 28.04484 -16.57686 219 ft 7 kts 230°
2026-04-27 08:09 28.04460 -16.57745 219 ft 8 kts 248°
2026-04-27 08:10 28.04436 -16.57812 219 ft 9 kts 248°
2026-04-27 08:10 28.04409 -16.57890 220 ft 11 kts 248°
2026-04-27 08:10 28.04378 -16.57977 219 ft 12 kts 248°
2026-04-27 08:10 28.04342 -16.58075 219 ft 14 kts 248°
2026-04-27 08:11 28.04304 -16.58185 219 ft 15 kts 248°
2026-04-27 08:11 28.04264 -16.58302 219 ft 16 kts 249°
2026-04-27 08:11 28.04219 -16.58432 219 ft 18 kts 248°
2026-04-27 08:11 28.04180 -16.58572 219 ft 19 kts 251°
2026-04-27 08:12 28.04130 -16.58720 219 ft 20 kts 249°
2026-04-27 08:12 28.04081 -16.58856 219 ft 10 kts 241°
2026-04-27 08:12 28.04028 -16.58880 219 ft 9 kts 157°
2026-04-27 08:12 28.03980 -16.58827 219 ft 10 kts 112°
2026-04-27 08:13 28.03958 -16.58745 219 ft 10 kts 113°
2026-04-27 08:13 28.03949 -16.58681 219 ft 0 kts 69°
2026-04-27 08:13 28.03961 -16.58646 219 ft 24 kts 68°
2026-04-27 08:13 28.04107 -16.58229 220 ft 87 kts 68°
2026-04-27 08:14 28.04403 -16.57380 220 ft 140 kts 68°
2026-04-27 08:14 28.04796 -16.56235 434 ft 162 kts 68°
2026-04-27 08:14 28.05199 -16.55069 1022 ft 163 kts 65°
2026-04-27 08:14 28.05641 -16.53842 1451 ft 173 kts 65°
2026-04-27 08:15 28.06086 -16.52564 1923 ft 180 kts 65°
2026-04-27 08:15 28.06559 -16.51165 2161 ft 198 kts 65°
2026-04-27 08:15 28.07059 -16.49702 2547 ft 208 kts 65°
2026-04-27 08:15 28.07606 -16.48120 2908 ft 220 kts 65°
2026-04-27 08:16 28.08177 -16.46482 3329 ft 229 kts 65°
2026-04-27 08:16 28.08699 -16.44762 3857 ft 234 kts 73°
2026-04-27 08:16 28.08925 -16.42925 4391 ft 240 kts 82°
2026-04-27 08:16 28.09009 -16.41070 4996 ft 240 kts 84°
2026-04-27 08:17 28.09099 -16.39182 5543 ft 242 kts 83°
2026-04-27 08:17 28.09216 -16.37296 6120 ft 243 kts 82°
2026-04-27 08:17 28.09353 -16.35363 6653 ft 246 kts 82°
2026-04-27 08:17 28.09498 -16.33410 7148 ft 253 kts 83°
2026-04-27 08:18 28.09647 -16.31396 7517 ft 266 kts 83°
2026-04-27 08:18 28.09804 -16.29278 7973 ft 275 kts 83°
2026-04-27 08:18 28.09961 -16.27102 8539 ft 280 kts 83°
2026-04-27 08:18 28.10117 -16.24928 9143 ft 283 kts 84°
2026-04-27 08:19 28.10278 -16.22686 9769 ft 286 kts 84°
2026-04-27 08:19 28.10439 -16.20443 10343 ft 291 kts 84°
2026-04-27 08:19 28.10607 -16.18113 10669 ft 305 kts 84°
2026-04-27 08:19 28.10784 -16.15673 11001 ft 319 kts 84°
2026-04-27 08:20 28.10968 -16.13123 11283 ft 335 kts 84°
2026-04-27 08:20 28.11161 -16.10436 11699 ft 345 kts 84°
2026-04-27 08:20 28.11353 -16.07723 12240 ft 352 kts 84°
2026-04-27 08:20 28.11550 -16.04956 12859 ft 355 kts 83°
2026-04-27 08:21 28.11918 -16.02178 13478 ft 358 kts 75°
2026-04-27 08:21 28.12794 -15.99573 14139 ft 358 kts 63°
2026-04-27 08:21 28.13977 -15.97090 14741 ft 363 kts 59°
2026-04-27 08:21 28.15276 -15.94620 15376 ft 367 kts 58°
2026-04-27 08:22 28.16591 -15.92144 15992 ft 372 kts 58°
2026-04-27 08:22 28.17912 -15.89595 16589 ft 376 kts 59°
2026-04-27 08:22 28.19216 -15.87007 17176 ft 381 kts 59°
2026-04-27 08:22 28.20511 -15.84378 17793 ft 385 kts 60°
2026-04-27 08:23 28.21792 -15.81750 18376 ft 388 kts 60°
2026-04-27 08:23 28.23107 -15.79043 18958 ft 392 kts 60°
2026-04-27 08:23 28.24425 -15.76331 19528 ft 395 kts 60°
2026-04-27 08:23 28.25740 -15.73624 20056 ft 399 kts 59°
2026-04-27 08:24 28.27086 -15.70854 20633 ft 401 kts 59°
2026-04-27 08:24 28.28427 -15.68090 21197 ft 404 kts 59°
2026-04-27 08:24 28.29785 -15.65287 21692 ft 408 kts 59°
2026-04-27 08:24 28.31146 -15.62474 22183 ft 411 kts 59°
2026-04-27 08:25 28.32534 -15.59604 22674 ft 414 kts 59°
2026-04-27 08:25 28.33915 -15.56744 23170 ft 417 kts 59°
2026-04-27 08:25 28.35316 -15.53840 23630 ft 421 kts 59°
2026-04-27 08:25 28.36705 -15.50958 24121 ft 423 kts 59°
2026-04-27 08:26 28.38122 -15.48015 24527 ft 427 kts 59°
2026-04-27 08:26 28.39555 -15.45041 24987 ft 430 kts 59°
2026-04-27 08:26 28.40978 -15.42083 25383 ft 433 kts 59°
2026-04-27 08:26 28.42436 -15.39053 25861 ft 435 kts 59°
2026-04-27 08:27 28.43884 -15.36042 26227 ft 439 kts 59°
2026-04-27 08:27 28.45358 -15.32977 26676 ft 441 kts 60°
2026-04-27 08:27 28.46826 -15.29920 27109 ft 443 kts 60°
2026-04-27 08:27 28.48285 -15.26881 27524 ft 444 kts 60°
2026-04-27 08:28 28.49763 -15.23800 27934 ft 446 kts 60°
2026-04-27 08:28 28.51258 -15.20681 28299 ft 449 kts 60°
2026-04-27 08:28 28.52747 -15.17573 28621 ft 453 kts 60°
2026-04-27 08:28 28.54247 -15.14437 29026 ft 454 kts 60°
2026-04-27 08:29 28.55751 -15.11290 29504 ft 453 kts 60°
2026-04-27 08:29 28.57251 -15.08149 30018 ft 452 kts 60°
2026-04-27 08:29 28.58747 -15.05012 30488 ft 450 kts 59°
2026-04-27 08:29 28.60222 -15.01920 30900 ft 448 kts 59°
2026-04-27 08:30 28.61717 -14.98779 31294 ft 447 kts 60°
2026-04-27 08:30 28.63193 -14.95677 31664 ft 447 kts 59°
2026-04-27 08:30 28.64652 -14.92613 31984 ft 447 kts 60°
2026-04-27 08:30 28.66132 -14.89502 32285 ft 448 kts 59°
2026-04-27 08:31 28.67614 -14.86385 32655 ft 446 kts 59°
2026-04-27 08:31 28.69075 -14.83308 33016 ft 445 kts 59°
2026-04-27 08:31 28.70545 -14.80211 33321 ft 445 kts 59°
2026-04-27 08:31 28.72018 -14.77107 33591 ft 445 kts 59°
2026-04-27 08:32 28.73483 -14.74015 33864 ft 446 kts 59°
2026-04-27 08:32 28.74964 -14.70889 34027 ft 448 kts 60°
2026-04-27 08:32 28.77912 -14.64655 34024 ft 446 kts 60°
2026-04-27 08:33 28.80813 -14.58505 34016 ft 443 kts 60°
2026-04-27 08:33 28.83728 -14.52319 34015 ft 443 kts 60°
2026-04-27 08:34 28.86636 -14.46141 34030 ft 443 kts 60°
2026-04-27 08:34 28.89537 -14.39966 34016 ft 441 kts 60°
2026-04-27 08:35 28.92431 -14.33804 34004 ft 443 kts 61°
2026-04-27 08:35 28.95340 -14.27596 34021 ft 443 kts 61°
2026-04-27 08:36 28.98235 -14.21408 34014 ft 443 kts 61°
2026-04-27 08:36 29.01133 -14.15207 34015 ft 443 kts 61°
2026-04-27 08:37 29.04016 -14.09028 34007 ft 440 kts 61°
2026-04-27 08:37 29.06873 -14.02894 34010 ft 440 kts 61°
2026-04-27 08:38 29.09737 -13.96733 34016 ft 440 kts 62°
2026-04-27 08:38 29.12592 -13.90581 34010 ft 441 kts 61°
2026-04-27 08:39 29.15474 -13.84364 34007 ft 443 kts 62°
2026-04-27 08:39 29.18343 -13.78166 34013 ft 443 kts 62°
2026-04-27 08:40 29.21223 -13.71934 34004 ft 443 kts 62°
2026-04-27 08:40 29.24093 -13.65719 34008 ft 444 kts 62°
2026-04-27 08:41 29.26957 -13.59506 34011 ft 442 kts 62°
2026-04-27 08:41 29.29817 -13.53290 34005 ft 442 kts 62°
2026-04-27 08:42 29.32684 -13.47046 34005 ft 443 kts 62°
2026-04-27 08:42 29.35537 -13.40823 34000 ft 442 kts 63°
2026-04-27 08:43 29.38380 -13.34609 34002 ft 441 kts 63°
2026-04-27 08:43 29.41222 -13.28392 33992 ft 441 kts 63°
2026-04-27 08:44 29.44067 -13.22158 33995 ft 441 kts 63°
2026-04-27 08:44 29.46892 -13.15958 33988 ft 441 kts 63°
2026-04-27 08:45 29.49727 -13.09727 33989 ft 441 kts 63°
2026-04-27 08:45 29.52552 -13.03508 33991 ft 441 kts 63°
2026-04-27 08:46 29.55389 -12.97257 33984 ft 440 kts 63°
2026-04-27 08:46 29.58192 -12.91066 33986 ft 440 kts 63°
2026-04-27 08:47 29.61003 -12.84844 33986 ft 440 kts 63°
2026-04-27 08:47 29.63832 -12.78576 33983 ft 440 kts 64°
2026-04-27 08:48 29.66633 -12.72364 33983 ft 440 kts 64°
2026-04-27 08:48 29.69436 -12.66135 33984 ft 440 kts 64°
2026-04-27 08:49 29.72246 -12.59890 33985 ft 440 kts 63°
2026-04-27 08:49 29.75336 -12.53861 33992 ft 441 kts 58°
2026-04-27 08:50 29.78790 -12.48029 33983 ft 440 kts 56°
2026-04-27 08:50 29.82269 -12.42287 33980 ft 440 kts 56°
2026-04-27 08:51 29.85771 -12.36456 33984 ft 441 kts 56°
2026-04-27 08:51 29.89229 -12.30638 33985 ft 441 kts 57°
2026-04-27 08:52 29.92659 -12.24831 33984 ft 440 kts 57°
2026-04-27 08:52 29.96075 -12.19025 33977 ft 440 kts 57°
2026-04-27 08:53 29.99531 -12.13163 33968 ft 439 kts 56°
2026-04-27 08:53 30.03348 -12.07679 33970 ft 442 kts 48°
2026-04-27 08:54 30.07671 -12.02692 33970 ft 443 kts 45°
2026-04-27 08:54 30.12136 -11.97826 33963 ft 443 kts 44°
2026-04-27 08:55 30.16616 -11.92921 33968 ft 443 kts 45°
2026-04-27 08:55 30.21071 -11.87984 33964 ft 442 kts 45°
2026-04-27 08:56 30.25483 -11.83051 33957 ft 442 kts 45°
2026-04-27 08:56 30.29885 -11.78107 33954 ft 442 kts 45°
2026-04-27 08:57 30.36497 -11.70660 33959 ft 444 kts 45°
2026-04-27 08:58 30.40887 -11.65705 33954 ft 444 kts 45°
2026-04-27 08:58 30.45343 -11.60669 33957 ft 445 kts 45°
2026-04-27 08:59 30.49739 -11.55693 33953 ft 445 kts 45°
2026-04-27 08:59 30.54164 -11.50679 33948 ft 445 kts 45°
2026-04-27 09:00 30.58591 -11.45654 33952 ft 445 kts 45°
2026-04-27 09:00 30.63010 -11.40632 33952 ft 445 kts 45°
2026-04-27 09:01 30.67434 -11.35597 33950 ft 446 kts 45°
2026-04-27 09:01 30.71842 -11.30574 33949 ft 447 kts 46°
2026-04-27 09:02 30.76294 -11.25495 33950 ft 446 kts 46°
2026-04-27 09:02 30.80718 -11.20441 33945 ft 446 kts 46°
2026-04-27 09:03 30.85100 -11.15427 33961 ft 446 kts 46°
2026-04-27 09:03 30.89549 -11.10329 33971 ft 449 kts 46°
2026-04-27 09:04 30.93994 -11.05229 33966 ft 448 kts 46°
2026-04-27 09:04 30.98407 -11.00160 33966 ft 449 kts 46°
2026-04-27 09:05 31.02862 -10.95035 33962 ft 448 kts 46°
2026-04-27 09:05 31.07304 -10.89918 33962 ft 449 kts 46°
2026-04-27 09:06 31.11710 -10.84835 33961 ft 449 kts 46°
2026-04-27 09:06 31.16148 -10.79708 33960 ft 450 kts 46°
2026-04-27 09:07 31.20585 -10.74575 33952 ft 449 kts 46°
2026-04-27 09:07 31.25004 -10.69457 33940 ft 449 kts 46°
2026-04-27 09:08 31.29439 -10.64312 33938 ft 448 kts 46°
2026-04-27 09:08 31.33838 -10.59201 33939 ft 448 kts 46°
2026-04-27 09:09 31.38270 -10.54045 33933 ft 448 kts 46°
2026-04-27 09:09 31.42683 -10.48904 33935 ft 449 kts 46°
2026-04-27 09:10 31.47104 -10.43746 33934 ft 449 kts 46°
2026-04-27 09:10 31.51514 -10.38595 33935 ft 449 kts 46°
2026-04-27 09:11 31.55912 -10.33450 33937 ft 450 kts 46°
2026-04-27 09:11 31.60358 -10.28242 33938 ft 450 kts 46°
2026-04-27 09:12 31.64777 -10.23058 33938 ft 450 kts 46°
2026-04-27 09:12 31.69184 -10.17881 33935 ft 450 kts 46°
2026-04-27 09:13 31.73591 -10.12696 33935 ft 449 kts 46°
2026-04-27 09:13 31.77988 -10.07515 33932 ft 450 kts 46°
2026-04-27 09:14 31.82430 -10.02274 33922 ft 450 kts 46°
2026-04-27 09:14 31.86844 -9.97059 33905 ft 450 kts 46°
2026-04-27 09:15 31.91255 -9.91840 33900 ft 450 kts 47°
2026-04-27 09:15 31.95649 -9.86634 33905 ft 450 kts 47°
2026-04-27 09:16 32.00050 -9.81410 33900 ft 450 kts 46°
2026-04-27 09:16 32.04443 -9.76189 33897 ft 450 kts 46°
2026-04-27 09:17 32.08879 -9.70909 33903 ft 452 kts 46°
2026-04-27 09:17 32.13284 -9.65661 33903 ft 452 kts 46°
2026-04-27 09:18 32.17691 -9.60400 33908 ft 452 kts 46°
2026-04-27 09:18 32.22091 -9.55141 33905 ft 452 kts 46°
2026-04-27 09:19 32.26502 -9.49860 33904 ft 452 kts 46°
2026-04-27 09:19 32.30921 -9.44563 33899 ft 452 kts 46°
2026-04-27 09:20 32.35306 -9.39298 33904 ft 452 kts 46°
2026-04-27 09:20 32.39718 -9.33993 33905 ft 453 kts 47°
2026-04-27 09:21 32.44137 -9.28673 33905 ft 453 kts 47°
2026-04-27 09:21 32.48558 -9.23342 33904 ft 453 kts 47°
2026-04-27 09:22 32.52946 -9.18043 33906 ft 452 kts 47°
2026-04-27 09:22 32.57354 -9.12711 33903 ft 452 kts 47°
2026-04-27 09:23 32.61737 -9.07402 33898 ft 453 kts 47°
2026-04-27 09:23 32.66129 -9.02073 33896 ft 453 kts 47°
2026-04-27 09:24 32.70537 -8.96717 33901 ft 454 kts 47°
2026-04-27 09:24 32.74965 -8.91330 33905 ft 454 kts 47°
2026-04-27 09:25 32.79355 -8.85981 33900 ft 455 kts 47°
2026-04-27 09:25 32.83766 -8.80597 33899 ft 455 kts 47°
2026-04-27 09:26 32.88164 -8.75222 33896 ft 453 kts 47°
2026-04-27 09:26 32.92552 -8.69851 33894 ft 454 kts 47°
2026-04-27 09:27 32.96930 -8.64482 33883 ft 453 kts 47°
2026-04-27 09:27 33.01320 -8.59092 33893 ft 454 kts 47°
2026-04-27 09:28 33.05710 -8.53694 33893 ft 453 kts 47°
2026-04-27 09:28 33.10080 -8.48313 33887 ft 454 kts 47°
2026-04-27 09:29 33.14468 -8.42901 33884 ft 453 kts 47°
2026-04-27 09:29 33.18922 -8.37566 33883 ft 454 kts 43°
2026-04-27 09:30 33.23928 -8.33005 33879 ft 454 kts 34°
2026-04-27 09:30 33.29274 -8.28992 33875 ft 454 kts 32°
2026-04-27 09:31 33.34688 -8.25066 33872 ft 454 kts 32°
2026-04-27 09:31 33.40020 -8.21149 33870 ft 453 kts 32°
2026-04-27 09:32 33.45383 -8.17148 33867 ft 454 kts 32°
2026-04-27 09:32 33.50741 -8.13114 33870 ft 454 kts 33°
2026-04-27 09:33 33.56081 -8.09073 33866 ft 454 kts 33°
2026-04-27 09:33 33.61418 -8.05021 33865 ft 455 kts 33°
2026-04-27 09:34 33.66715 -8.00994 33868 ft 454 kts 33°
2026-04-27 09:34 33.72055 -7.96927 33860 ft 454 kts 33°
2026-04-27 09:35 33.77380 -7.92866 33863 ft 453 kts 33°
2026-04-27 09:35 33.82701 -7.88802 33858 ft 453 kts 33°
2026-04-27 09:36 33.88023 -7.84731 33863 ft 453 kts 33°
2026-04-27 09:36 33.93325 -7.80669 33866 ft 453 kts 32°
2026-04-27 09:37 33.98618 -7.76609 33866 ft 453 kts 32°
2026-04-27 09:37 34.03928 -7.72529 33867 ft 455 kts 32°
2026-04-27 09:38 34.09253 -7.68432 33867 ft 454 kts 33°
2026-04-27 09:38 34.14576 -7.64330 33864 ft 454 kts 33°
2026-04-27 09:39 34.19902 -7.60219 33867 ft 453 kts 32°
2026-04-27 09:39 34.25191 -7.56130 33866 ft 453 kts 32°
2026-04-27 09:40 34.30516 -7.52007 33866 ft 454 kts 32°
2026-04-27 09:40 34.35813 -7.47900 33863 ft 453 kts 32°
2026-04-27 09:41 34.41124 -7.43777 33867 ft 455 kts 32°
2026-04-27 09:41 34.46408 -7.39668 33865 ft 454 kts 32°
2026-04-27 09:42 34.51712 -7.35536 33862 ft 455 kts 32°
2026-04-27 09:42 34.57061 -7.31363 33863 ft 455 kts 33°
2026-04-27 09:43 34.62378 -7.27209 33857 ft 454 kts 33°
2026-04-27 09:43 34.67684 -7.23057 33865 ft 455 kts 33°
2026-04-27 09:44 34.72968 -7.18916 33861 ft 454 kts 33°
2026-04-27 09:44 34.78286 -7.14742 33860 ft 454 kts 33°
2026-04-27 09:45 34.83575 -7.10584 33860 ft 455 kts 33°
2026-04-27 09:45 34.88875 -7.06411 33862 ft 455 kts 33°
2026-04-27 09:46 34.94196 -7.02215 33864 ft 456 kts 33°
2026-04-27 09:46 34.99530 -6.98003 33866 ft 457 kts 33°
2026-04-27 09:47 35.04853 -6.93792 33868 ft 456 kts 32°
2026-04-27 09:47 35.10157 -6.89589 33875 ft 454 kts 32°
2026-04-27 09:48 35.15423 -6.85411 33886 ft 453 kts 33°
2026-04-27 09:48 35.20699 -6.81217 33879 ft 452 kts 33°
2026-04-27 09:49 35.25984 -6.77010 33885 ft 453 kts 33°
2026-04-27 09:49 35.31206 -6.72809 33885 ft 451 kts 35°
2026-04-27 09:50 35.35724 -6.67566 33892 ft 451 kts 54°
2026-04-27 09:50 35.39133 -6.61164 33889 ft 451 kts 60°
2026-04-27 09:51 35.42245 -6.54531 33897 ft 449 kts 61°
2026-04-27 09:51 35.45332 -6.47865 33903 ft 448 kts 60°
2026-04-27 09:52 35.48517 -6.41362 33904 ft 449 kts 59°
2026-04-27 09:52 35.51817 -6.34845 33902 ft 448 kts 59°
2026-04-27 09:53 35.55093 -6.28404 33915 ft 448 kts 59°
2026-04-27 09:53 35.58378 -6.21924 33914 ft 448 kts 59°
2026-04-27 09:54 35.61654 -6.15434 33908 ft 449 kts 59°
2026-04-27 09:54 35.64925 -6.08934 33920 ft 447 kts 59°
2026-04-27 09:55 35.68196 -6.02416 33923 ft 448 kts 59°
2026-04-27 09:55 35.73073 -5.92670 33933 ft 447 kts 60°
2026-04-27 09:56 35.76008 -5.85982 33940 ft 446 kts 65°
2026-04-27 09:56 35.78657 -5.79128 33943 ft 446 kts 66°
2026-04-27 09:57 35.81270 -5.72255 33963 ft 444 kts 66°
2026-04-27 09:57 35.83899 -5.65405 33974 ft 444 kts 65°
2026-04-27 09:58 35.86608 -5.58585 33967 ft 444 kts 65°
2026-04-27 09:58 35.89367 -5.51770 33995 ft 444 kts 64°
2026-04-27 09:59 35.92109 -5.45006 34009 ft 444 kts 65°
2026-04-27 09:59 35.94866 -5.38181 34006 ft 444 kts 65°
2026-04-27 10:00 35.97600 -5.31387 34021 ft 443 kts 65°
2026-04-27 10:00 36.00317 -5.24616 34016 ft 441 kts 65°
2026-04-27 10:01 36.03086 -5.17876 34017 ft 442 kts 64°
2026-04-27 10:01 36.05910 -5.11171 34020 ft 440 kts 64°
2026-04-27 10:02 36.08737 -5.04464 34026 ft 441 kts 64°
2026-04-27 10:02 36.11546 -4.97766 34021 ft 441 kts 64°
2026-04-27 10:03 36.14448 -4.91120 34019 ft 442 kts 60°
2026-04-27 10:03 36.18148 -4.85037 34028 ft 444 kts 49°
2026-04-27 10:04 36.22366 -4.79526 34024 ft 444 kts 46°
2026-04-27 10:04 36.26697 -4.74115 34020 ft 444 kts 46°
2026-04-27 10:05 36.31015 -4.68669 34020 ft 442 kts 46°
2026-04-27 10:05 36.35293 -4.63195 34018 ft 442 kts 46°
2026-04-27 10:06 36.39528 -4.57725 34021 ft 441 kts 47°
2026-04-27 10:06 36.43761 -4.52231 34013 ft 441 kts 47°
2026-04-27 10:07 36.48006 -4.46704 34019 ft 442 kts 47°
2026-04-27 10:07 36.52222 -4.41204 34023 ft 441 kts 46°
2026-04-27 10:08 36.56448 -4.35684 34033 ft 442 kts 46°
2026-04-27 10:08 36.60663 -4.30167 34025 ft 442 kts 47°
2026-04-27 10:09 36.64896 -4.24615 34034 ft 441 kts 47°
2026-04-27 10:09 36.69094 -4.19103 34032 ft 440 kts 47°
2026-04-27 10:10 36.73305 -4.13564 34028 ft 439 kts 47°
2026-04-27 10:10 36.77493 -4.08044 34030 ft 439 kts 47°
2026-04-27 10:11 36.81675 -4.02523 34041 ft 438 kts 47°
2026-04-27 10:11 36.85860 -3.96990 34054 ft 440 kts 47°
2026-04-27 10:12 36.90049 -3.91440 34074 ft 439 kts 46°
2026-04-27 10:12 36.94230 -3.85894 34088 ft 438 kts 46°
2026-04-27 10:13 36.98414 -3.80333 34101 ft 439 kts 46°
2026-04-27 10:13 37.02569 -3.74802 34105 ft 439 kts 46°
2026-04-27 10:14 37.06763 -3.69209 34107 ft 438 kts 46°
2026-04-27 10:14 37.10911 -3.63667 34108 ft 439 kts 46°
2026-04-27 10:15 37.15136 -3.58129 34111 ft 440 kts 45°
2026-04-27 10:15 37.19369 -3.52679 34115 ft 440 kts 45°
2026-04-27 10:16 37.23649 -3.47176 34118 ft 441 kts 45°
2026-04-27 10:16 37.27922 -3.41658 34114 ft 441 kts 45°
2026-04-27 10:17 37.32171 -3.36154 34116 ft 440 kts 45°
2026-04-27 10:17 37.36422 -3.30630 34113 ft 440 kts 45°
2026-04-27 10:18 37.40685 -3.25079 34112 ft 439 kts 45°
2026-04-27 10:18 37.44912 -3.19564 34108 ft 439 kts 45°
2026-04-27 10:19 37.49145 -3.14033 34108 ft 439 kts 45°
2026-04-27 10:19 37.53363 -3.08510 34106 ft 440 kts 45°
2026-04-27 10:20 37.57610 -3.02940 34106 ft 438 kts 45°
2026-04-27 10:20 37.61823 -2.97405 34110 ft 439 kts 45°
2026-04-27 10:21 37.66024 -2.91879 34111 ft 438 kts 44°
2026-04-27 10:21 37.70233 -2.86331 34109 ft 437 kts 44°
2026-04-27 10:22 37.74455 -2.80758 34115 ft 437 kts 44°
2026-04-27 10:22 37.78621 -2.75249 34121 ft 436 kts 44°
2026-04-27 10:23 37.82807 -2.69703 34129 ft 436 kts 44°
2026-04-27 10:23 37.86994 -2.64146 34134 ft 436 kts 44°
2026-04-27 10:24 37.91186 -2.58572 34137 ft 437 kts 44°
2026-04-27 10:24 37.95375 -2.52993 34136 ft 437 kts 44°
2026-04-27 10:25 37.99527 -2.47451 34132 ft 435 kts 44°
2026-04-27 10:25 38.03703 -2.41869 34132 ft 436 kts 44°
2026-04-27 10:26 38.07853 -2.36314 34127 ft 435 kts 44°
2026-04-27 10:26 38.12022 -2.30722 34132 ft 435 kts 44°
2026-04-27 10:27 38.16175 -2.25141 34131 ft 435 kts 45°
2026-04-27 10:27 38.20332 -2.19544 34125 ft 436 kts 45°
2026-04-27 10:28 38.24252 -2.13722 34130 ft 437 kts 49°
2026-04-27 10:28 38.28001 -2.07594 34130 ft 437 kts 50°
2026-04-27 10:29 38.31683 -2.01505 34131 ft 436 kts 50°
2026-04-27 10:29 38.35411 -1.95377 34129 ft 436 kts 50°
2026-04-27 10:30 38.39130 -1.89297 34129 ft 436 kts 50°
2026-04-27 10:30 38.42870 -1.83197 34122 ft 437 kts 50°
2026-04-27 10:31 38.46586 -1.77137 34118 ft 436 kts 50°
2026-04-27 10:31 38.50319 -1.71042 34117 ft 436 kts 50°
2026-04-27 10:32 38.54058 -1.64927 34122 ft 436 kts 50°
2026-04-27 10:32 38.57771 -1.58843 34120 ft 436 kts 50°
2026-04-27 10:33 38.61487 -1.52743 34118 ft 436 kts 50°
2026-04-27 10:33 38.65203 -1.46632 34121 ft 436 kts 50°
2026-04-27 10:34 38.68907 -1.40528 34121 ft 436 kts 50°
2026-04-27 10:34 38.72630 -1.34380 34120 ft 436 kts 50°
2026-04-27 10:35 38.76336 -1.28252 34124 ft 436 kts 50°
2026-04-27 10:35 38.80032 -1.22132 34121 ft 436 kts 50°
2026-04-27 10:36 38.83720 -1.16012 34121 ft 435 kts 50°
2026-04-27 10:36 38.87415 -1.09867 34123 ft 435 kts 50°
2026-04-27 10:37 38.91084 -1.03755 34122 ft 435 kts 50°
2026-04-27 10:37 38.94773 -0.97597 34128 ft 435 kts 50°
2026-04-27 10:38 38.98451 -0.91448 34125 ft 435 kts 50°
2026-04-27 10:38 39.02142 -0.85263 34124 ft 435 kts 50°
2026-04-27 10:39 39.05835 -0.79160 34120 ft 435 kts 48°
2026-04-27 10:39 39.10015 -0.73648 34115 ft 431 kts 39°
2026-04-27 10:40 39.14633 -0.68696 34116 ft 430 kts 37°
2026-04-27 10:40 39.19276 -0.63896 34110 ft 430 kts 37°
2026-04-27 10:41 39.23903 -0.59060 34107 ft 430 kts 37°
2026-04-27 10:41 39.28531 -0.54162 34111 ft 429 kts 37°
2026-04-27 10:42 39.33242 -0.49441 34107 ft 429 kts 34°
2026-04-27 10:42 39.38010 -0.44875 34106 ft 428 kts 34°
2026-04-27 10:43 39.42797 -0.40285 34115 ft 428 kts 34°
2026-04-27 10:43 39.47562 -0.35677 34118 ft 429 kts 34°
2026-04-27 10:44 39.52305 -0.31060 34117 ft 429 kts 35°
2026-04-27 10:44 39.57070 -0.26402 34116 ft 428 kts 36°
2026-04-27 10:45 39.61805 -0.21763 34117 ft 428 kts 36°
2026-04-27 10:45 39.66556 -0.17097 34109 ft 428 kts 36°
2026-04-27 10:46 39.71300 -0.12431 34109 ft 427 kts 35°
2026-04-27 10:46 39.76001 -0.07797 34112 ft 427 kts 36°
2026-04-27 10:47 39.80745 -0.03114 34111 ft 428 kts 36°
2026-04-27 10:47 39.85244 0.01949 34113 ft 429 kts 43°
2026-04-27 10:48 39.89372 0.07535 34112 ft 430 kts 45°
2026-04-27 10:48 39.93430 0.13270 34111 ft 429 kts 46°
2026-04-27 10:49 39.97457 0.18967 34117 ft 429 kts 46°
2026-04-27 10:49 40.01476 0.24624 34107 ft 428 kts 45°
2026-04-27 10:50 40.05521 0.30297 34112 ft 428 kts 45°
2026-04-27 10:50 40.09579 0.35981 34108 ft 427 kts 45°
2026-04-27 10:51 40.13639 0.41674 34110 ft 427 kts 45°
2026-04-27 10:51 40.17666 0.47331 34106 ft 427 kts 45°
2026-04-27 10:52 40.21698 0.53005 34109 ft 427 kts 45°
2026-04-27 10:52 40.25726 0.58683 34105 ft 425 kts 45°
2026-04-27 10:53 40.31739 0.67183 34105 ft 423 kts 46°
2026-04-27 10:54 40.35718 0.72821 34110 ft 424 kts 46°
2026-04-27 10:54 40.39700 0.78474 34105 ft 423 kts 46°
2026-04-27 10:55 40.43693 0.84156 34109 ft 423 kts 46°
2026-04-27 10:55 40.47639 0.89779 34109 ft 421 kts 46°
2026-04-27 10:56 40.51625 0.95471 34111 ft 421 kts 46°
2026-04-27 10:56 40.55579 1.01128 34112 ft 421 kts 46°
2026-04-27 10:57 40.59501 1.06753 34113 ft 419 kts 47°
2026-04-27 10:57 40.63416 1.12382 34111 ft 418 kts 47°
2026-04-27 10:58 40.67350 1.18050 34114 ft 420 kts 47°
2026-04-27 10:58 40.71289 1.23735 34113 ft 420 kts 47°
2026-04-27 10:59 40.75212 1.29401 34113 ft 420 kts 47°
2026-04-27 10:59 40.79129 1.35068 34111 ft 419 kts 47°
2026-04-27 11:00 40.85029 1.43620 34115 ft 420 kts 47°
2026-04-27 11:00 40.88931 1.49291 34112 ft 419 kts 47°
2026-04-27 11:01 40.92842 1.54990 34116 ft 419 kts 47°
2026-04-27 11:01 40.96744 1.60687 34115 ft 419 kts 47°
2026-04-27 11:02 41.00652 1.66405 34110 ft 419 kts 48°
2026-04-27 11:02 41.04572 1.72150 34112 ft 420 kts 48°
2026-04-27 11:03 41.08476 1.77882 34111 ft 419 kts 48°
2026-04-27 11:03 41.12378 1.83620 34113 ft 419 kts 48°
2026-04-27 11:04 41.16238 1.89307 34114 ft 417 kts 48°
2026-04-27 11:04 41.20114 1.95030 34115 ft 418 kts 48°
2026-04-27 11:05 41.23979 2.00749 34120 ft 417 kts 48°
2026-04-27 11:05 41.27815 2.06449 34118 ft 417 kts 49°
2026-04-27 11:06 41.31239 2.12661 34121 ft 417 kts 59°
2026-04-27 11:06 41.33870 2.19396 34123 ft 416 kts 64°
2026-04-27 11:07 41.36274 2.26386 34123 ft 415 kts 65°
2026-04-27 11:07 41.38646 2.33384 34122 ft 415 kts 65°
2026-04-27 11:08 41.41016 2.40339 34113 ft 415 kts 65°
2026-04-27 11:08 41.43422 2.47359 34109 ft 415 kts 64°
2026-04-27 11:09 41.45824 2.54356 34097 ft 416 kts 64°
2026-04-27 11:09 41.48204 2.61298 34099 ft 415 kts 64°
2026-04-27 11:10 41.50603 2.68310 34098 ft 415 kts 65°
2026-04-27 11:10 41.52989 2.75299 34096 ft 414 kts 64°
2026-04-27 11:11 41.55364 2.82271 34097 ft 414 kts 64°
2026-04-27 11:11 41.57733 2.89241 34096 ft 414 kts 64°
2026-04-27 11:12 41.60108 2.96247 34103 ft 414 kts 64°
2026-04-27 11:12 41.62473 3.03245 34094 ft 414 kts 64°
2026-04-27 11:13 41.64824 3.10220 34094 ft 414 kts 64°
2026-04-27 11:13 41.67178 3.17216 34093 ft 414 kts 64°
2026-04-27 11:14 41.69538 3.24251 34088 ft 414 kts 64°
2026-04-27 11:14 41.71879 3.31247 34095 ft 414 kts 64°
2026-04-27 11:15 41.74210 3.38234 34093 ft 413 kts 64°
2026-04-27 11:15 41.76537 3.45222 34099 ft 413 kts 64°
2026-04-27 11:16 41.78872 3.52249 34103 ft 413 kts 64°
2026-04-27 11:16 41.81193 3.59258 34103 ft 412 kts 64°
2026-04-27 11:17 41.83517 3.66289 34099 ft 412 kts 64°
2026-04-27 11:17 41.85822 3.73284 34102 ft 412 kts 64°
2026-04-27 11:18 41.88129 3.80304 34096 ft 412 kts 64°
2026-04-27 11:18 41.90433 3.87331 34095 ft 411 kts 64°
2026-04-27 11:19 41.92717 3.94314 34099 ft 411 kts 64°
2026-04-27 11:19 41.95010 4.01347 34092 ft 410 kts 64°
2026-04-27 11:20 41.97277 4.08321 34096 ft 410 kts 64°
2026-04-27 11:20 41.99552 4.15333 34098 ft 409 kts 64°
2026-04-27 11:21 42.01823 4.22349 34100 ft 411 kts 64°
2026-04-27 11:21 42.04092 4.29378 34101 ft 410 kts 64°
2026-04-27 11:22 42.06349 4.36392 34105 ft 410 kts 64°
2026-04-27 11:22 42.08602 4.43424 34109 ft 409 kts 64°
2026-04-27 11:23 42.10827 4.50494 34116 ft 411 kts 64°
2026-04-27 11:23 42.13030 4.57563 34117 ft 410 kts 64°
2026-04-27 11:24 42.15228 4.64631 34120 ft 410 kts 64°
2026-04-27 11:24 42.17432 4.71727 34116 ft 410 kts 65°
2026-04-27 11:25 42.19619 4.78780 34113 ft 410 kts 65°
2026-04-27 11:25 42.21811 4.85867 34113 ft 410 kts 65°
2026-04-27 11:26 42.23992 4.92939 34118 ft 409 kts 65°
2026-04-27 11:26 42.26176 5.00038 34117 ft 410 kts 65°
2026-04-27 11:27 42.28342 5.07099 34115 ft 409 kts 64°
2026-04-27 11:27 42.30523 5.14222 34123 ft 409 kts 65°
2026-04-27 11:28 42.32681 5.21293 34120 ft 409 kts 65°
2026-04-27 11:28 42.34837 5.28376 34116 ft 409 kts 65°
2026-04-27 11:29 42.36993 5.35478 34107 ft 409 kts 65°
2026-04-27 11:29 42.39149 5.42601 34115 ft 410 kts 65°
2026-04-27 11:30 42.41281 5.49663 34107 ft 409 kts 65°
2026-04-27 11:30 42.43432 5.56804 34104 ft 409 kts 65°
2026-04-27 11:31 42.45579 5.63953 34117 ft 409 kts 65°
2026-04-27 11:31 42.47709 5.71068 34120 ft 410 kts 65°
2026-04-27 11:32 42.49831 5.78173 34114 ft 410 kts 65°
2026-04-27 11:32 42.51965 5.85340 34113 ft 410 kts 65°
2026-04-27 11:33 42.54088 5.92489 34114 ft 410 kts 65°
2026-04-27 11:33 42.56204 5.99633 34111 ft 409 kts 65°
2026-04-27 11:34 42.58313 6.06775 34109 ft 410 kts 65°
2026-04-27 11:34 42.60416 6.13918 34117 ft 409 kts 65°
2026-04-27 11:35 42.62527 6.21102 34115 ft 411 kts 66°
2026-04-27 11:35 42.64614 6.28229 34110 ft 409 kts 66°
2026-04-27 11:36 42.66715 6.35423 34120 ft 409 kts 66°
2026-04-27 11:36 42.68809 6.42613 34111 ft 409 kts 66°
2026-04-27 11:37 42.70877 6.49734 34114 ft 408 kts 66°
2026-04-27 11:37 42.72958 6.56919 34107 ft 409 kts 66°
2026-04-27 11:38 42.75034 6.64107 34119 ft 409 kts 66°
2026-04-27 11:38 42.77092 6.71254 34112 ft 409 kts 67°
2026-04-27 11:39 42.79156 6.78443 34111 ft 408 kts 67°
2026-04-27 11:39 42.81220 6.85651 34109 ft 408 kts 67°
2026-04-27 11:40 42.83268 6.92818 34119 ft 409 kts 67°
2026-04-27 11:40 42.85319 7.00021 34115 ft 408 kts 67°
2026-04-27 11:41 42.87362 7.07218 34123 ft 408 kts 67°
2026-04-27 11:41 42.89401 7.14424 34114 ft 408 kts 67°
2026-04-27 11:42 42.91431 7.21614 34124 ft 407 kts 67°
2026-04-27 11:42 42.93447 7.28774 34112 ft 408 kts 67°
2026-04-27 11:43 42.95475 7.35999 34117 ft 409 kts 67°
2026-04-27 11:43 42.97500 7.43236 34114 ft 409 kts 67°